Content
SEND FEEDBACK

Daily
Averages
Monthly
Summary
United States of America

INARAJAN, GUAM


Home > North America > United States > Guam
Elevation: 280 feet     Latitude: 13 18N     Longitude: 144 44E

WEATHER
 
SELECT A DAY
Number of Records: 342,166;   Date Range: 1/1/95 - 8/12/14
 
SHARE

PRINT THIS DATA

[ ← Previous Day ]
WEATHER ALMANAC - OCTOBER 23, 2013
[ Next Day → ]
[ °C ]   °F
Weather ElementAverageHighLow
Temperature78.1 °F82.4 °F (8:55 am)73.4 °F (1:27 pm)
Dewpoint74.9 °F78.8 °F (9:58 am)69.3 °F (12:58 pm)
Humidity90.3 %100 % (1:24 am)77 % (12:58 pm)
Barometer29.74 in29.80 in (10:03 am)29.67 in (2:58 pm)
Wind Speed9.3 mph13.8 mph (1:58 pm)
Weather ElementAverage
Visibility8.5 mi
Wind DirectionNW (310.2 °)

Weather ElementTotal
Precipitation0.12 in
Cooling Degree Days12.9 (Base 65)
Growing Degree Days27.9 (Base 50)
Averaged from 58 records on October 23, 2013
WEATHER CONDITIONS BREAKOUT
WIND DIRECTION BREAKOUT
WEATHER BY HOUR - OCTOBER 23, 2013
[ °C ]   °F
Local TimeTemperatureDewpointHumidityBarometerVisibilityWind DirectionWind SpeedGust SpeedPrecipitationEventsConditions
12:58 AM76.6 °F76.1 °F98 %29.76 in10.0 miWest (280°)3.5 mph0.00 inRainLight Rain
12:59 AM77.0 °F75.2 °F94 %29.79 in10.0 miWest (270°)3.5 mphClear
1:24 AM75.2 °F75.2 °F100 %29.77 in5.0 miWNW (300°)2.3 mphRainLight Rain
1:47 AM77.0 °F77.0 °F100 %29.77 in5.0 miWNW (290°)4.6 mphClear
1:58 AM76.8 °F76.6 °F99 %29.74 in6.0 miWNW (300°)4.6 mph0.04 inPartly Cloudy
2:16 AM77.0 °F77.0 °F100 %29.76 in7.0 miWest (270°)4.6 mphRainRain
2:35 AM77.0 °F75.2 °F94 %29.76 in7.0 miWest (270°)5.8 mphPartly Cloudy
2:45 AM77.0 °F77.0 °F100 %29.76 in9.0 miWNW (300°)5.8 mphRainLight Rain
2:57 AM77.0 °F77.0 °F100 %29.75 in5.0 miWNW (300°)6.9 mphPartly Cloudy
2:58 AM77.0 °F77.0 °F100 %29.72 in5.0 miWNW (300°)6.9 mph0.05 inPartly Cloudy
3:58 AM75.9 °F75.9 °F100 %29.72 in5.0 miWNW (290°)8.1 mph0.00 inPartly Cloudy
4:58 AM76.1 °F76.1 °F100 %29.72 in5.0 miNW (310°)8.1 mphPartly Cloudy
5:58 AM75.6 °F75.6 °F100 %29.73 in5.0 miNW (310°)8.1 mphPartly Cloudy
6:58 AM75.7 °F75.7 °F100 %29.74 in4.0 miNW (320°)8.1 mphClear
7:55 AM78.8 °F77.0 °F94 %29.79 in5.0 miNW (320°)8.1 mphClear
8:55 AM82.4 °F77.0 °F84 %29.79 in10.0 miNW (310°)5.8 mphScattered Clouds
9:58 AM80.6 °F78.8 °F94 %29.77 in2.5 miNNW (330°)9.2 mph0.01 inLight Drizzle
10:03 AM80.6 °F78.8 °F94 %29.80 in1.0 miNNW (340°)6.9 mphLight Drizzle
10:10 AM80.6 °F78.8 °F94 %29.79 in1.5 miNW (310°)5.8 mphMostly Cloudy
10:15 AM80.6 °F78.8 °F94 %29.80 in6.0 miNW (320°)4.6 mphMostly Cloudy
10:20 AM80.6 °F78.8 °F94 %29.80 in10.0 miNNW (330°)5.8 mphMostly Cloudy
10:25 AM80.6 °F78.8 °F94 %29.79 in10.0 miNNW (330°)5.8 mphMostly Cloudy
10:30 AM80.6 °F78.8 °F94 %29.79 in10.0 miNNW (330°)5.8 mphMostly Cloudy
10:58 AM78.3 °F73.2 °F84 %29.74 in10.0 miNW (310°)9.2 mph0.00 inPartly Cloudy
11:58 AM76.1 °F69.4 °F80 %29.71 in10.0 miWest (280°)12.7 mphMostly Cloudy
12:18 PM75.2 °F69.8 °F83 %29.74 in10.0 miWNW (290°)12.7 mphMostly Cloudy
12:28 PM77.0 °F69.8 °F78 %29.73 in10.0 miNW (310°)11.5 mphMostly Cloudy
12:33 PM77.0 °F69.8 °F78 %29.73 in10.0 miNW (310°)9.2 mphMostly Cloudy
12:38 PM77.0 °F69.8 °F78 %29.73 in10.0 miNNW (330°)10.4 mphMostly Cloudy
12:43 PM77.0 °F69.8 °F78 %29.73 in10.0 miNNW (330°)9.2 mphMostly Cloudy
12:48 PM77.0 °F69.8 °F78 %29.73 in10.0 miNW (320°)11.5 mphScattered Clouds
12:58 PM77.0 °F69.3 °F77 %29.70 in10.0 miNW (320°)11.5 mphScattered Clouds
1:13 PM77.0 °F69.8 °F78 %29.72 in10.0 miNW (310°)10.4 mphMostly Cloudy
1:17 PM77.0 °F69.8 °F78 %29.72 in10.0 miNNW (340°)11.5 mphRainLight Rain
1:22 PM75.2 °F71.6 °F89 %29.72 in10.0 miNW (310°)11.5 mphRainRain
1:27 PM73.4 °F71.6 °F94 %29.72 in10.0 miNW (310°)12.7 mphRainLight Rain
1:32 PM73.4 °F71.6 °F94 %29.72 in10.0 miWNW (290°)11.5 mphScattered Clouds
1:58 PM79.5 °F73.4 °F81 %29.68 in10.0 miNW (320°)13.8 mph0.01 inPartly Cloudy
2:23 PM80.6 °F73.4 °F79 %29.71 in10.0 miNW (320°)11.5 mphMostly Cloudy
2:53 PM80.6 °F73.4 °F79 %29.70 in10.0 miNW (320°)11.5 mphScattered Clouds
2:58 PM80.6 °F73.9 °F80 %29.67 in10.0 miNW (320°)13.8 mphScattered Clouds
3:03 PM78.8 °F73.4 °F83 %29.70 in10.0 miNW (320°)12.7 mphMostly Cloudy
3:13 PM78.8 °F71.6 °F78 %29.70 in10.0 miNW (320°)10.4 mphScattered Clouds
3:58 PM82.0 °F75.7 °F81 %29.67 in10.0 miNW (310°)13.8 mphPartly Cloudy
4:58 PM81.9 °F77.2 °F86 %29.67 in10.0 miWNW (300°)12.7 mphPartly Cloudy
5:58 PM79.5 °F76.5 °F90 %29.68 in10.0 miNW (320°)12.7 mphClear
6:58 PM78.6 °F76.5 °F93 %29.70 in10.0 miNW (320°)10.4 mphClear
7:58 PM78.3 °F76.1 °F93 %29.75 in10.0 miWNW (300°)11.5 mphClear
8:58 PM78.3 °F76.5 °F94 %29.75 in10.0 miNW (310°)11.5 mphClear
9:58 PM77.9 °F76.3 °F95 %29.72 in10.0 miNW (310°)12.7 mphClear
10:18 PM78.8 °F77.0 °F94 %29.75 in10.0 miNW (310°)11.5 mphMostly Cloudy
10:19 PM78.8 °F77.0 °F94 %29.75 in10.0 miNW (310°)11.5 mphLight Drizzle
10:24 PM78.8 °F77.0 °F94 %29.75 in10.0 miNW (310°)10.4 mphRainHeavy Rain
10:35 PM78.8 °F77.0 °F94 %29.75 in10.0 miNW (310°)10.4 mphPartly Cloudy
10:58 PM77.9 °F76.6 °F96 %29.72 in10.0 miNW (320°)10.4 mph0.01 inScattered Clouds
11:07 PM78.8 °F77.0 °F94 %29.75 in10.0 miNW (320°)10.4 mphRainLight Rain
11:16 PM78.8 °F77.0 °F94 %29.75 in10.0 miNW (320°)10.4 mphMostly Cloudy
11:58 PM77.5 °F76.6 °F97 %29.72 in10.0 miNW (310°)9.2 mph0.00 inPartly Cloudy
Hourly data recorded from PGUA, located miles away from Inarajan, Guam







STORIES FROM OUR PARTNERS